GLOBALSTAR M089

Last updated on Sat Sep 05 2026 00:03:16 GMT+0000 (Coordinated Universal Time)

1 37744U 11033F 26247.54128794 -.00000080 00000+0 13142-3 0 9996 2 37744 51.9915 268.1800 0000133 41.7334 124.1566 12.62263272700804
UTC large
Height (km)
Speed (km/s)
/
Latitude / Longitude
Inclination (degrees)
Orbital Period (minutes)
Azimuth
Elevation
Range (km)
Doppler Factor

Next 0 passes for location: London (51.5072 / 0.1276)

No passes found over London.
GLOBALSTAR M089